Time,TemperatureF,DewpointF,PressureIn,WindDirection,WindDirectionDegrees,WindSpeedMPH,WindSpeedGustMPH,Humidity,HourlyPrecipIn,Conditions,Clouds,dailyrainin,SoftwareType,DateUTC
2013-09-01 00:01:00,67.0,64.6,29.90,WSW,248,1.0,3.0,92,0.00,,---,0.05,VWS V14.01,2013-09-01 04:01:00,
2013-09-01 00:02:00,67.0,64.6,29.91,WSW,248,1.0,1.0,92,0.00,,---,0.00,VWS V14.01,2013-09-01 04:02:00,
2013-09-01 00:03:00,67.0,64.6,29.90,WSW,248,1.0,1.0,92,0.00,,---,0.00,VWS V14.01,2013-09-01 04:03:00,
2013-09-01 00:08:00,67.0,64.9,29.90,WSW,248,1.0,1.0,93,0.00,,---,0.00,VWS V14.01,2013-09-01 04:08:00,
2013-09-01 00:13:00,67.0,64.9,29.89,WSW,248,0.0,1.0,93,0.00,,---,0.00,VWS V14.01,2013-09-01 04:13:00,
2013-09-01 00:18:00,67.0,64.9,29.89,WSW,248,0.0,1.0,93,0.00,,---,0.00,VWS V14.01,2013-09-01 04:18:00,
2013-09-01 00:21:00,67.0,64.9,29.88,WSW,248,1.0,1.0,93,0.00,,---,0.00,VWS V14.01,2013-09-01 04:21:00,
2013-09-01 00:26:00,67.0,64.9,29.88,WSW,248,1.0,1.0,93,0.00,,---,0.00,VWS V14.01,2013-09-01 04:26:00,
2013-09-01 00:31:00,67.0,64.9,29.88,WSW,248,0.0,1.0,93,0.00,,---,0.00,VWS V14.01,2013-09-01 04:31:00,
2013-09-01 00:36:00,67.0,64.9,29.88,West,270,1.0,1.0,93,0.00,,---,0.00,VWS V14.01,2013-09-01 04:36:00,
2013-09-01 00:41:00,66.0,63.9,29.88,West,270,0.0,1.0,93,0.00,,---,0.00,VWS V14.01,2013-09-01 04:41:00,
2013-09-01 00:46:00,66.0,63.9,29.88,WSW,248,1.0,1.0,93,0.00,,---,0.00,VWS V14.01,2013-09-01 04:46:00,
2013-09-01 00:52:00,66.0,63.9,29.87,WSW,248,1.0,1.0,93,0.00,,---,0.00,VWS V14.01,2013-09-01 04:52:00,
2013-09-01 00:57:00,66.0,63.9,29.87,SE,135,2.0,3.0,93,0.00,,---,0.00,VWS V14.01,2013-09-01 04:57:00,
2013-09-01 01:02:00,66.0,64.2,29.86,SSE,158,1.0,3.0,94,0.00,,---,0.00,VWS V14.01,2013-09-01 05:02:00,
2013-09-01 01:07:00,66.0,64.2,29.87,SSE,158,1.0,4.0,94,0.00,,---,0.00,VWS V14.01,2013-09-01 05:07:00,
2013-09-01 01:12:00,66.0,64.2,29.87,SW,225,1.0,4.0,94,0.00,,---,0.00,VWS V14.01,2013-09-01 05:12:00,
2013-09-01 01:17:00,66.0,64.2,29.88,West,270,3.0,5.0,94,0.00,,---,0.00,VWS V14.01,2013-09-01 05:17:00,
2013-09-01 01:22:00,66.0,64.2,29.87,West,270,1.0,1.0,94,0.00,,---,0.00,VWS V14.01,2013-09-01 05:22:00,
2013-09-01 01:27:00,66.0,64.2,29.87,WNW,292,0.0,1.0,94,0.00,,---,0.00,VWS V14.01,2013-09-01 05:27:00,
2013-09-01 01:32:00,65.0,63.2,29.87,West,270,1.0,1.0,94,0.00,,---,0.00,VWS V14.01,2013-09-01 05:32:00,
2013-09-01 01:37:00,65.0,63.2,29.87,WNW,292,0.0,1.0,94,0.00,,---,0.00,VWS V14.01,2013-09-01 05:37:00,
2013-09-01 01:42:00,65.0,63.2,29.86,West,270,1.0,1.0,94,0.00,,---,0.00,VWS V14.01,2013-09-01 05:42:00,
2013-09-01 01:48:00,65.0,63.2,29.86,SSW,202,1.0,2.0,94,0.00,,---,0.00,VWS V14.01,2013-09-01 05:48:00,
2013-09-01 01:53:00,65.0,63.2,29.86,SSW,202,0.0,2.0,94,0.00,,---,0.00,VWS V14.01,2013-09-01 05:53:00,
2013-09-01 01:58:00,65.0,63.5,29.86,SSW,202,0.0,2.0,95,0.00,,---,0.00,VWS V14.01,2013-09-01 05:58:00,
2013-09-01 02:03:00,65.0,63.5,29.86,SSW,202,0.0,1.0,95,0.00,,---,0.00,VWS V14.01,2013-09-01 06:03:00,
2013-09-01 02:08:00,65.0,63.5,29.86,WSW,248,1.0,3.0,95,0.00,,---,0.00,VWS V14.01,2013-09-01 06:08:00,
2013-09-01 02:13:00,65.0,63.5,29.86,WSW,248,1.0,3.0,95,0.00,,---,0.00,VWS V14.01,2013-09-01 06:13:00,
2013-09-01 02:18:00,65.0,63.5,29.86,WSW,248,0.0,3.0,95,0.00,,---,0.00,VWS V14.01,2013-09-01 06:18:00,
2013-09-01 02:23:00,65.0,63.5,29.86,West,270,2.0,3.0,95,0.00,,---,0.00,VWS V14.01,2013-09-01 06:23:00,
2013-09-01 02:28:00,65.0,63.5,29.86,West,270,1.0,3.0,95,0.00,,---,0.00,VWS V14.01,2013-09-01 06:28:00,
2013-09-01 02:33:00,64.0,62.5,29.86,West,270,1.0,3.0,95,0.00,,---,0.00,VWS V14.01,2013-09-01 06:33:00,
2013-09-01 02:38:00,64.0,62.5,29.86,West,270,0.0,3.0,95,0.00,,---,0.00,VWS V14.01,2013-09-01 06:38:00,
2013-09-01 02:44:00,64.0,62.5,29.86,West,270,1.0,1.0,95,0.00,,---,0.00,VWS V14.01,2013-09-01 06:44:00,
2013-09-01 02:49:00,64.0,62.5,29.86,West,270,1.0,2.0,95,0.00,,---,0.00,VWS V14.01,2013-09-01 06:49:00,
2013-09-01 02:54:00,64.0,62.5,29.86,West,270,0.0,2.0,95,0.00,,---,0.00,VWS V14.01,2013-09-01 06:54:00,
2013-09-01 02:59:00,64.0,62.5,29.86,West,270,1.0,2.0,95,0.00,,---,0.00,VWS V14.01,2013-09-01 06:59:00,
2013-09-01 03:04:00,64.0,62.8,29.86,SE,135,1.0,3.0,96,0.00,,---,0.00,VWS V14.01,2013-09-01 07:04:00,
2013-09-01 03:09:00,64.0,62.8,29.86,SE,135,1.0,3.0,96,0.00,,---,0.00,VWS V14.01,2013-09-01 07:09:00,
2013-09-01 03:14:00,64.0,62.8,29.86,SE,135,0.0,3.0,96,0.00,,---,0.00,VWS V14.01,2013-09-01 07:14:00,
2013-09-01 03:19:00,64.0,62.8,29.87,SE,135,1.0,3.0,96,0.00,,---,0.00,VWS V14.01,2013-09-01 07:19:00,
2013-09-01 03:24:00,65.0,63.8,29.86,SE,135,1.0,1.0,96,0.00,,---,0.00,VWS V14.01,2013-09-01 07:24:00,
2013-09-01 03:29:00,65.0,63.8,29.87,SE,135,0.0,1.0,96,0.00,,---,0.00,VWS V14.01,2013-09-01 07:29:00,
2013-09-01 03:34:00,65.0,63.8,29.87,WSW,248,1.0,2.0,96,0.00,,---,0.00,VWS V14.01,2013-09-01 07:34:00,
2013-09-01 03:39:00,65.0,63.8,29.87,WSW,248,1.0,2.0,96,0.00,,---,0.00,VWS V14.01,2013-09-01 07:39:00,
2013-09-01 03:45:00,65.0,63.8,29.87,West,270,0.0,2.0,96,0.00,,---,0.00,VWS V14.01,2013-09-01 07:45:00,
2013-09-01 03:50:00,65.0,63.8,29.88,West,270,0.0,2.0,96,0.00,,---,0.00,VWS V14.01,2013-09-01 07:50:00,
2013-09-01 03:55:00,65.0,63.8,29.87,North,0,1.0,3.0,96,0.00,,---,0.00,VWS V14.01,2013-09-01 07:55:00,
2013-09-01 04:00:00,65.0,63.8,29.88,North,0,0.0,3.0,96,0.00,,---,0.00,VWS V14.01,2013-09-01 08:00:00,
2013-09-01 04:05:00,65.0,63.8,29.88,NNE,22,0.0,1.0,96,0.00,,---,0.00,VWS V14.01,2013-09-01 08:05:00,
2013-09-01 04:10:00,65.0,63.8,29.88,NNE,22,0.0,1.0,96,0.00,,---,0.00,VWS V14.01,2013-09-01 08:10:00,
2013-09-01 04:15:00,65.0,63.8,29.88,NNE,22,0.0,1.0,96,0.00,,---,0.00,VWS V14.01,2013-09-01 08:15:00,
2013-09-01 04:20:00,65.0,63.8,29.88,SE,135,1.0,2.0,96,0.00,,---,0.00,VWS V14.01,2013-09-01 08:20:00,
2013-09-01 04:25:00,66.0,64.8,29.88,ESE,112,0.0,3.0,96,0.00,,---,0.00,VWS V14.01,2013-09-01 08:25:00,
2013-09-01 04:30:00,66.0,64.8,29.88,ENE,68,0.0,3.0,96,0.00,,---,0.00,VWS V14.01,2013-09-01 08:30:00,
2013-09-01 04:35:00,66.0,64.8,29.88,SE,135,1.0,3.0,96,0.00,,---,0.00,VWS V14.01,2013-09-01 08:35:00,
2013-09-01 04:40:00,66.0,64.8,29.87,SSE,158,1.0,3.0,96,0.00,,---,0.00,VWS V14.01,2013-09-01 08:40:00,
2013-09-01 04:46:00,66.0,64.8,29.87,SE,135,1.0,2.0,96,0.00,,---,0.00,VWS V14.01,2013-09-01 08:46:00,
2013-09-01 04:51:00,66.0,64.8,29.87,SE,135,3.0,4.0,96,0.00,,---,0.00,VWS V14.01,2013-09-01 08:51:00,
2013-09-01 04:56:00,66.0,64.8,29.87,SSW,202,1.0,5.0,96,0.00,,---,0.00,VWS V14.01,2013-09-01 08:56:00,
2013-09-01 05:01:00,66.0,64.8,29.87,South,180,0.0,5.0,96,0.00,,---,0.00,VWS V14.01,2013-09-01 09:01:00,
2013-09-01 05:06:00,66.0,64.8,29.87,SSW,202,1.0,2.0,96,0.00,,---,0.00,VWS V14.01,2013-09-01 09:06:00,
2013-09-01 05:11:00,66.0,64.8,29.87,West,270,1.0,3.0,96,0.00,,---,0.00,VWS V14.01,2013-09-01 09:11:00,
2013-09-01 05:16:00,66.0,64.8,29.87,West,270,0.0,3.0,96,0.00,,---,0.00,VWS V14.01,2013-09-01 09:16:00,
2013-09-01 05:21:00,65.0,63.8,29.87,NNW,338,1.0,3.0,96,0.00,,---,0.00,VWS V14.01,2013-09-01 09:21:00,
2013-09-01 05:26:00,65.0,63.8,29.88,WSW,248,1.0,3.0,96,0.00,,---,0.00,VWS V14.01,2013-09-01 09:26:00,
2013-09-01 05:31:00,65.0,63.8,29.88,WSW,248,1.0,3.0,96,0.00,,---,0.00,VWS V14.01,2013-09-01 09:31:00,
2013-09-01 05:36:00,65.0,63.8,29.88,ESE,112,1.0,3.0,96,0.00,,---,0.00,VWS V14.01,2013-09-01 09:36:00,
2013-09-01 05:42:00,65.0,63.8,29.88,ESE,112,0.0,1.0,96,0.00,,---,0.00,VWS V14.01,2013-09-01 09:42:00,
2013-09-01 05:47:00,65.0,63.8,29.88,ESE,112,1.0,1.0,96,0.00,,---,0.00,VWS V14.01,2013-09-01 09:47:00,
2013-09-01 05:52:00,65.0,63.8,29.88,ESE,112,0.0,1.0,96,0.00,,---,0.00,VWS V14.01,2013-09-01 09:52:00,
2013-09-01 05:57:00,65.0,63.8,29.88,ESE,112,0.0,1.0,96,0.00,,---,0.00,VWS V14.01,2013-09-01 09:57:00,
2013-09-01 06:02:00,65.0,63.8,29.88,SE,135,1.0,2.0,96,0.00,,---,0.00,VWS V14.01,2013-09-01 10:02:00,
2013-09-01 06:07:00,65.0,63.8,29.88,SE,135,1.0,2.0,96,0.00,,---,0.00,VWS V14.01,2013-09-01 10:07:00,
2013-09-01 06:12:00,65.0,63.8,29.88,ESE,112,1.0,2.0,96,0.00,,---,0.00,VWS V14.01,2013-09-01 10:12:00,
2013-09-01 06:17:00,65.0,63.8,29.88,SE,135,0.0,3.0,96,0.00,,---,0.00,VWS V14.01,2013-09-01 10:17:00,
2013-09-01 06:22:00,65.0,64.1,29.88,ESE,112,0.0,3.0,97,0.00,,---,0.00,VWS V14.01,2013-09-01 10:22:00,
2013-09-01 06:28:00,65.0,63.8,29.89,SE,135,3.0,4.0,96,0.00,,---,0.00,VWS V14.01,2013-09-01 10:28:00,
2013-09-01 06:33:00,65.0,63.8,29.89,SE,135,0.0,4.0,96,0.00,,---,0.00,VWS V14.01,2013-09-01 10:33:00,
2013-09-01 06:38:00,65.0,63.8,29.88,SE,135,0.0,4.0,96,0.00,,---,0.00,VWS V14.01,2013-09-01 10:38:00,
2013-09-01 06:43:00,65.0,63.8,29.89,SSE,158,1.0,3.0,96,0.00,,---,0.00,VWS V14.01,2013-09-01 10:43:00,
2013-09-01 06:48:00,65.0,63.8,29.88,SE,135,3.0,5.0,96,0.00,,---,0.00,VWS V14.01,2013-09-01 10:48:00,
2013-09-01 06:53:00,65.0,63.8,29.89,ESE,112,0.0,5.0,96,0.00,,---,0.00,VWS V14.01,2013-09-01 10:53:00,
2013-09-01 06:58:00,65.0,63.8,29.89,SE,135,1.0,5.0,96,0.00,,---,0.00,VWS V14.01,2013-09-01 10:58:00,
2013-09-01 07:04:00,65.0,63.8,29.89,SW,225,1.0,1.0,96,0.00,,---,0.00,VWS V14.01,2013-09-01 11:04:00,
2013-09-01 07:09:00,65.0,64.1,29.89,SW,225,0.0,2.0,97,0.00,,---,0.00,VWS V14.01,2013-09-01 11:09:00,
2013-09-01 07:14:00,65.0,64.1,29.89,SSE,158,1.0,2.0,97,0.00,,---,0.00,VWS V14.01,2013-09-01 11:14:00,
2013-09-01 07:19:00,65.0,64.1,29.89,SE,135,0.0,2.0,97,0.00,,---,0.00,VWS V14.01,2013-09-01 11:19:00,
2013-09-01 07:24:00,65.0,64.1,29.89,ESE,112,1.0,3.0,97,0.00,,---,0.00,VWS V14.01,2013-09-01 11:24:00,
2013-09-01 07:29:00,65.0,64.1,29.89,SE,135,3.0,3.0,97,0.00,,---,0.00,VWS V14.01,2013-09-01 11:29:00,
2013-09-01 07:35:00,65.0,64.1,29.89,SE,135,3.0,4.0,97,0.00,,---,0.00,VWS V14.01,2013-09-01 11:35:00,
2013-09-01 07:40:00,65.0,64.1,29.89,SW,225,2.0,4.0,97,0.00,,---,0.00,VWS V14.01,2013-09-01 11:40:00,
2013-09-01 07:45:00,66.0,65.1,29.89,SSE,158,1.0,2.0,97,0.00,,---,0.00,VWS V14.01,2013-09-01 11:45:00,
2013-09-01 07:50:00,66.0,65.1,29.89,SE,135,3.0,3.0,97,0.00,,---,0.00,VWS V14.01,2013-09-01 11:50:00,
2013-09-01 07:55:00,66.0,65.1,29.89,ENE,68,1.0,4.0,97,0.00,,---,0.00,VWS V14.01,2013-09-01 11:55:00,
2013-09-01 08:00:00,66.0,65.1,29.89,ENE,68,1.0,4.0,97,0.00,,---,0.00,VWS V14.01,2013-09-01 12:00:00,
2013-09-01 08:05:00,66.0,65.1,29.89,NNE,22,1.0,1.0,97,0.00,,---,0.00,VWS V14.01,2013-09-01 12:05:00,
2013-09-01 08:10:00,66.0,64.8,29.89,NNE,22,0.0,1.0,96,0.00,,---,0.00,VWS V14.01,2013-09-01 12:10:00,
2013-09-01 08:16:00,66.0,64.8,29.89,WSW,248,1.0,2.0,96,0.00,,---,0.00,VWS V14.01,2013-09-01 12:16:00,
2013-09-01 08:21:00,66.0,64.8,29.89,South,180,0.0,3.0,96,0.00,,---,0.00,VWS V14.01,2013-09-01 12:21:00,
2013-09-01 08:26:00,66.0,64.8,29.89,South,180,1.0,3.0,96,0.00,,---,0.00,VWS V14.01,2013-09-01 12:26:00,
2013-09-01 08:31:00,66.0,64.8,29.89,South,180,3.0,4.0,96,0.00,,---,0.00,VWS V14.01,2013-09-01 12:31:00,
2013-09-01 08:36:00,66.0,64.8,29.90,SW,225,5.0,5.0,96,0.00,,---,0.00,VWS V14.01,2013-09-01 12:36:00,
2013-09-01 08:41:00,66.0,65.1,29.90,SSW,202,3.0,5.0,97,0.00,,---,0.00,VWS V14.01,2013-09-01 12:41:00,
2013-09-01 08:46:00,66.0,64.8,29.90,SSE,158,3.0,3.0,96,0.00,,---,0.00,VWS V14.01,2013-09-01 12:46:00,
2013-09-01 08:51:00,66.0,65.1,29.89,SE,135,1.0,3.0,97,0.00,,---,0.00,VWS V14.01,2013-09-01 12:51:00,
2013-09-01 08:56:00,66.0,65.1,29.89,South,180,1.0,3.0,97,0.00,,---,0.00,VWS V14.01,2013-09-01 12:56:00,
2013-09-01 09:02:00,66.0,65.1,29.90,West,270,2.0,2.0,97,0.00,,---,0.00,VWS V14.01,2013-09-01 13:02:00,
2013-09-01 09:07:00,67.0,66.1,29.90,West,270,1.0,3.0,97,0.00,,---,0.00,VWS V14.01,2013-09-01 13:07:00,
2013-09-01 09:12:00,67.0,66.1,29.90,West,270,2.0,3.0,97,0.00,,---,0.00,VWS V14.01,2013-09-01 13:12:00,
2013-09-01 09:17:00,67.0,66.1,29.90,WSW,248,1.0,3.0,97,0.00,,---,0.00,VWS V14.01,2013-09-01 13:17:00,
2013-09-01 09:22:00,67.0,66.1,29.90,SSW,202,1.0,1.0,97,0.00,,---,0.00,VWS V14.01,2013-09-01 13:22:00,
2013-09-01 09:27:00,67.0,65.8,29.90,NW,315,2.0,2.0,96,0.00,,---,0.00,VWS V14.01,2013-09-01 13:27:00,
2013-09-01 09:32:00,67.0,65.8,29.90,South,180,1.0,3.0,96,0.00,,---,0.00,VWS V14.01,2013-09-01 13:32:00,
2013-09-01 09:38:00,67.0,65.8,29.90,SE,135,2.0,3.0,96,0.00,,---,0.00,VWS V14.01,2013-09-01 13:38:00,
2013-09-01 09:43:00,67.0,65.8,29.90,SE,135,3.0,3.0,96,0.00,,---,0.00,VWS V14.01,2013-09-01 13:43:00,
2013-09-01 09:48:00,67.0,65.8,29.90,East,90,1.0,4.0,96,0.00,,---,0.00,VWS V14.01,2013-09-01 13:48:00,
2013-09-01 09:53:00,68.0,66.8,29.90,ENE,68,2.0,4.0,96,0.00,,---,0.00,VWS V14.01,2013-09-01 13:53:00,
2013-09-01 09:58:00,68.0,66.8,29.90,ENE,68,3.0,5.0,96,0.00,,---,0.00,VWS V14.01,2013-09-01 13:58:00,
2013-09-01 10:04:00,68.0,66.5,29.91,ENE,68,3.0,3.0,95,0.00,,---,0.00,VWS V14.01,2013-09-01 14:04:00,
2013-09-01 10:09:00,68.0,66.5,29.91,SE,135,5.0,6.0,95,0.00,,---,0.00,VWS V14.01,2013-09-01 14:09:00,
2013-09-01 10:14:00,68.0,66.2,29.90,ESE,112,3.0,6.0,94,0.00,,---,0.00,VWS V14.01,2013-09-01 14:14:00,
2013-09-01 10:19:00,69.0,67.2,29.90,SE,135,2.0,6.0,94,0.00,,---,0.00,VWS V14.01,2013-09-01 14:19:00,
2013-09-01 10:24:00,70.0,67.9,29.90,ESE,112,2.0,6.0,93,0.00,,---,0.00,VWS V14.01,2013-09-01 14:24:00,
2013-09-01 10:29:00,69.0,66.3,29.90,East,90,2.0,6.0,91,0.00,,---,0.00,VWS V14.01,2013-09-01 14:29:00,
2013-09-01 10:35:00,70.0,67.3,29.90,East,90,3.0,6.0,91,0.00,,---,0.00,VWS V14.01,2013-09-01 14:35:00,
2013-09-01 10:40:00,71.0,67.9,29.90,SE,135,1.0,6.0,90,0.00,,---,0.00,VWS V14.01,2013-09-01 14:40:00,
2013-09-01 10:45:00,71.0,67.3,29.90,SE,135,5.0,9.0,88,0.00,,---,0.00,VWS V14.01,2013-09-01 14:45:00,
2013-09-01 10:50:00,71.0,66.9,29.90,ESE,112,5.0,9.0,87,0.00,,---,0.00,VWS V14.01,2013-09-01 14:50:00,
2013-09-01 10:55:00,71.0,66.6,29.90,SE,135,1.0,9.0,86,0.00,,---,0.00,VWS V14.01,2013-09-01 14:55:00,
2013-09-01 11:00:00,71.0,66.3,29.90,SSW,202,0.0,9.0,85,0.00,,---,0.00,VWS V14.01,2013-09-01 15:00:00,
2013-09-01 11:06:00,72.0,66.9,29.89,SSW,202,2.0,3.0,84,0.00,,---,0.00,VWS V14.01,2013-09-01 15:06:00,
2013-09-01 11:11:00,72.0,66.6,29.89,SE,135,5.0,6.0,83,0.00,,---,0.00,VWS V14.01,2013-09-01 15:11:00,
2013-09-01 11:16:00,73.0,67.2,29.89,South,180,3.0,6.0,82,0.00,,---,0.00,VWS V14.01,2013-09-01 15:16:00,
2013-09-01 11:21:00,73.0,66.8,29.89,SE,135,7.0,7.0,81,0.00,,---,0.00,VWS V14.01,2013-09-01 15:21:00,
2013-09-01 11:26:00,73.0,66.8,29.89,SE,135,7.0,8.0,81,0.00,,---,0.00,VWS V14.01,2013-09-01 15:26:00,
2013-09-01 11:31:00,73.0,66.5,29.89,South,180,8.0,10.0,80,0.00,,---,0.00,VWS V14.01,2013-09-01 15:31:00,
2013-09-01 11:37:00,73.0,66.5,29.89,SSE,158,6.0,10.0,80,0.00,,---,0.00,VWS V14.01,2013-09-01 15:37:00,
2013-09-01 11:42:00,73.0,66.5,29.88,SE,135,6.0,8.0,80,0.00,,---,0.00,VWS V14.01,2013-09-01 15:42:00,
2013-09-01 11:47:00,74.0,67.4,29.89,SE,135,6.0,8.0,80,0.00,,---,0.00,VWS V14.01,2013-09-01 15:47:00,
2013-09-01 11:52:00,74.0,67.4,29.89,SE,135,9.0,13.0,80,0.00,,---,0.00,VWS V14.01,2013-09-01 15:52:00,
2013-09-01 11:57:00,74.0,67.1,29.88,ESE,112,3.0,13.0,79,0.00,,---,0.00,VWS V14.01,2013-09-01 15:57:00,
2013-09-01 12:02:00,75.0,67.3,29.88,SE,135,5.0,8.0,77,0.00,,---,0.00,VWS V14.01,2013-09-01 16:02:00,
2013-09-01 12:08:00,75.0,66.9,29.89,SE,135,4.0,11.0,76,0.00,,---,0.00,VWS V14.01,2013-09-01 16:08:00,
2013-09-01 12:13:00,75.0,66.6,29.88,SE,135,6.0,11.0,75,0.00,,---,0.00,VWS V14.01,2013-09-01 16:13:00,
2013-09-01 12:18:00,76.0,67.1,29.88,SSE,158,3.0,11.0,74,0.00,,---,0.00,VWS V14.01,2013-09-01 16:18:00,
2013-09-01 12:23:00,76.0,67.1,29.88,SE,135,2.0,8.0,74,0.00,,---,0.00,VWS V14.01,2013-09-01 16:23:00,
2013-09-01 12:28:00,77.0,68.1,29.88,East,90,5.0,8.0,74,0.00,,---,0.00,VWS V14.01,2013-09-01 16:28:00,
2013-09-01 12:33:00,77.0,67.3,29.88,South,180,3.0,8.0,72,0.00,,---,0.00,VWS V14.01,2013-09-01 16:33:00,
2013-09-01 12:39:00,77.0,67.3,29.88,South,180,4.0,8.0,72,0.00,,---,0.00,VWS V14.01,2013-09-01 16:39:00,
2013-09-01 12:44:00,77.0,66.5,29.88,ENE,68,2.0,8.0,70,0.00,,---,0.00,VWS V14.01,2013-09-01 16:44:00,
2013-09-01 12:49:00,78.0,67.4,29.88,SE,135,8.0,9.0,70,0.00,,---,0.00,VWS V14.01,2013-09-01 16:49:00,
2013-09-01 12:54:00,78.0,66.6,29.88,SW,225,3.0,10.0,68,0.00,,---,0.00,VWS V14.01,2013-09-01 16:54:00,
2013-09-01 12:59:00,78.0,66.6,29.88,SW,225,4.0,10.0,68,0.00,,---,0.00,VWS V14.01,2013-09-01 16:59:00,
2013-09-01 13:04:00,79.0,67.6,29.88,WSW,248,6.0,6.0,68,0.00,,---,0.00,VWS V14.01,2013-09-01 17:04:00,
2013-09-01 13:10:00,79.0,66.7,29.88,SW,225,5.0,8.0,66,0.00,,---,0.00,VWS V14.01,2013-09-01 17:10:00,
2013-09-01 13:15:00,79.0,66.7,29.87,SSE,158,6.0,9.0,66,0.00,,---,0.00,VWS V14.01,2013-09-01 17:15:00,
2013-09-01 13:20:00,79.0,66.7,29.87,South,180,3.0,9.0,66,0.00,,---,0.00,VWS V14.01,2013-09-01 17:20:00,
2013-09-01 13:25:00,79.0,66.7,29.87,SW,225,4.0,5.0,66,0.00,,---,0.00,VWS V14.01,2013-09-01 17:25:00,
2013-09-01 13:30:00,79.0,66.7,29.87,SW,225,5.0,7.0,66,0.00,,---,0.00,VWS V14.01,2013-09-01 17:30:00,
2013-09-01 13:35:00,79.0,66.2,29.87,SW,225,3.0,7.0,65,0.00,,---,0.00,VWS V14.01,2013-09-01 17:35:00,
2013-09-01 13:41:00,79.0,66.2,29.87,South,180,3.0,7.0,65,0.00,,---,0.00,VWS V14.01,2013-09-01 17:41:00,
2013-09-01 13:46:00,79.0,66.7,29.87,SSW,202,4.0,8.0,66,0.00,,---,0.00,VWS V14.01,2013-09-01 17:46:00,
2013-09-01 13:51:00,79.0,66.7,29.87,SSW,202,5.0,8.0,66,0.00,,---,0.00,VWS V14.01,2013-09-01 17:51:00,
2013-09-01 13:56:00,79.0,66.7,29.87,SSE,158,4.0,8.0,66,0.00,,---,0.00,VWS V14.01,2013-09-01 17:56:00,
2013-09-01 14:01:00,79.0,67.1,29.87,SW,225,8.0,8.0,67,0.00,,---,0.00,VWS V14.01,2013-09-01 18:01:00,
2013-09-01 14:06:00,79.0,68.0,29.87,NNW,338,2.0,9.0,69,0.00,,---,0.00,VWS V14.01,2013-09-01 18:06:00,
2013-09-01 14:12:00,79.0,66.7,29.87,WNW,292,2.0,9.0,66,0.00,,---,0.00,VWS V14.01,2013-09-01 18:12:00,
2013-09-01 14:17:00,79.0,66.7,29.87,SSW,202,4.0,9.0,66,0.00,,---,0.00,VWS V14.01,2013-09-01 18:17:00,
2013-09-01 14:22:00,79.0,66.7,29.87,SW,225,1.0,3.0,66,0.00,,---,0.00,VWS V14.01,2013-09-01 18:22:00,
2013-09-01 14:27:00,79.0,66.7,29.87,WNW,292,3.0,7.0,66,0.00,,---,0.00,VWS V14.01,2013-09-01 18:27:00,
2013-09-01 14:32:00,79.0,66.7,29.87,West,270,5.0,8.0,66,0.00,,---,0.00,VWS V14.01,2013-09-01 18:32:00,
2013-09-01 14:37:00,79.0,67.1,29.87,West,270,1.0,8.0,67,0.00,,---,0.00,VWS V14.01,2013-09-01 18:37:00,
2013-09-01 14:43:00,78.0,66.6,29.87,West,270,3.0,5.0,68,0.00,,---,0.00,VWS V14.01,2013-09-01 18:43:00,
2013-09-01 14:48:00,79.0,67.6,29.86,West,270,3.0,7.0,68,0.00,,---,0.00,VWS V14.01,2013-09-01 18:48:00,
2013-09-01 14:53:00,79.0,68.4,29.86,West,270,3.0,7.0,70,0.00,,---,0.00,VWS V14.01,2013-09-01 18:53:00,
2013-09-01 14:58:00,80.0,68.1,29.85,SSW,202,5.0,7.0,67,0.00,,---,0.00,VWS V14.01,2013-09-01 18:58:00,
2013-09-01 15:03:00,81.0,68.1,29.85,WNW,292,3.0,3.0,65,0.00,,---,0.00,VWS V14.01,2013-09-01 19:03:00,
2013-09-01 15:09:00,82.0,69.1,29.84,WSW,248,3.0,5.0,65,0.00,,---,0.00,VWS V14.01,2013-09-01 19:09:00,
2013-09-01 15:14:00,82.0,68.2,29.84,WNW,292,1.0,6.0,63,0.00,,---,0.00,VWS V14.01,2013-09-01 19:14:00,
2013-09-01 15:19:00,83.0,67.7,29.84,NW,315,1.0,6.0,60,0.00,,---,0.00,VWS V14.01,2013-09-01 19:19:00,
2013-09-01 15:24:00,81.0,66.3,29.84,SW,225,4.0,10.0,61,0.00,,---,0.00,VWS V14.01,2013-09-01 19:24:00,
2013-09-01 15:29:00,82.0,68.2,29.84,WNW,292,5.0,10.0,63,0.00,,---,0.00,VWS V14.01,2013-09-01 19:29:00,
2013-09-01 15:35:00,82.0,67.7,29.84,WNW,292,5.0,10.0,62,0.00,,---,0.00,VWS V14.01,2013-09-01 19:35:00,
2013-09-01 15:40:00,81.0,67.2,29.84,NE,45,4.0,10.0,63,0.00,,---,0.00,VWS V14.01,2013-09-01 19:40:00,
2013-09-01 15:45:00,82.0,68.2,29.84,ESE,112,2.0,5.0,63,0.00,,---,0.00,VWS V14.01,2013-09-01 19:45:00,
2013-09-01 15:50:00,82.0,68.2,29.84,WNW,292,0.0,5.0,63,0.00,,---,0.00,VWS V14.01,2013-09-01 19:50:00,
2013-09-01 15:55:00,82.0,68.2,29.83,North,0,1.0,5.0,63,0.00,,---,0.00,VWS V14.01,2013-09-01 19:55:00,
2013-09-01 16:00:00,82.0,68.6,29.83,NNW,338,1.0,5.0,64,0.00,,---,0.00,VWS V14.01,2013-09-01 20:00:00,
2013-09-01 16:06:00,82.0,69.1,29.83,ENE,68,1.0,4.0,65,0.00,,---,0.00,VWS V14.01,2013-09-01 20:06:00,
2013-09-01 16:11:00,82.0,68.2,29.83,North,0,1.0,4.0,63,0.00,,---,0.00,VWS V14.01,2013-09-01 20:11:00,
2013-09-01 16:16:00,82.0,69.1,29.82,North,0,0.0,4.0,65,0.00,,---,0.00,VWS V14.01,2013-09-01 20:16:00,
2013-09-01 16:21:00,82.0,67.7,29.83,SW,225,4.0,7.0,62,0.00,,---,0.00,VWS V14.01,2013-09-01 20:21:00,
2013-09-01 16:26:00,81.0,66.3,29.83,SSE,158,3.0,7.0,61,0.00,,---,0.00,VWS V14.01,2013-09-01 20:26:00,
2013-09-01 16:31:00,81.0,67.2,29.82,South,180,4.0,8.0,63,0.00,,---,0.00,VWS V14.01,2013-09-01 20:31:00,
2013-09-01 16:37:00,80.0,66.7,29.82,South,180,5.0,8.0,64,0.00,,---,0.00,VWS V14.01,2013-09-01 20:37:00,
2013-09-01 16:42:00,80.0,67.2,29.82,South,180,1.0,4.0,65,0.00,,---,0.00,VWS V14.01,2013-09-01 20:42:00,
2013-09-01 16:47:00,80.0,67.6,29.82,SW,225,2.0,5.0,66,0.00,,---,0.00,VWS V14.01,2013-09-01 20:47:00,
2013-09-01 16:52:00,80.0,68.1,29.83,SW,225,3.0,6.0,67,0.00,,---,0.00,VWS V14.01,2013-09-01 20:52:00,
2013-09-01 16:57:00,79.0,67.6,29.82,West,270,6.0,8.0,68,0.00,,---,0.00,VWS V14.01,2013-09-01 20:57:00,
2013-09-01 17:02:00,79.0,69.2,29.82,WNW,292,8.0,13.0,72,0.00,,---,0.00,VWS V14.01,2013-09-01 21:02:00,
2013-09-01 17:07:00,77.0,68.9,29.84,West,270,16.0,19.0,76,0.00,,---,0.00,VWS V14.01,2013-09-01 21:07:00,
2013-09-01 17:12:00,73.0,65.7,29.85,WSW,248,18.0,21.0,78,0.11,,---,0.11,VWS V14.01,2013-09-01 21:12:00,
2013-09-01 17:17:00,71.0,66.6,29.85,West,270,3.0,21.0,86,0.33,,---,0.33,VWS V14.01,2013-09-01 21:17:00,
2013-09-01 17:22:00,70.0,66.3,29.85,North,0,7.0,11.0,88,0.43,,---,0.43,VWS V14.01,2013-09-01 21:22:00,
2013-09-01 17:28:00,69.0,65.9,29.84,North,0,7.0,11.0,90,0.55,,---,0.55,VWS V14.01,2013-09-01 21:28:00,
2013-09-01 17:33:00,68.0,65.3,29.84,NNE,22,1.0,11.0,91,0.57,,---,0.57,VWS V14.01,2013-09-01 21:33:00,
2013-09-01 17:38:00,69.0,66.9,29.85,WNW,292,7.0,11.0,93,0.57,,---,0.57,VWS V14.01,2013-09-01 21:38:00,
2013-09-01 17:43:00,69.0,66.9,29.86,WNW,292,3.0,16.0,93,0.58,,---,0.58,VWS V14.01,2013-09-01 21:43:00,
2013-09-01 17:48:00,69.0,66.9,29.87,WNW,292,6.0,16.0,93,0.58,,---,0.58,VWS V14.01,2013-09-01 21:48:00,
2013-09-01 17:53:00,69.0,66.9,29.87,SW,225,8.0,16.0,93,0.59,,---,0.59,VWS V14.01,2013-09-01 21:53:00,
2013-09-01 17:58:00,68.0,65.9,29.87,WNW,292,4.0,16.0,93,0.60,,---,0.60,VWS V14.01,2013-09-01 21:58:00,
2013-09-01 18:03:00,68.0,65.9,29.88,WSW,248,6.0,10.0,93,0.60,,---,0.60,VWS V14.01,2013-09-01 22:03:00,
2013-09-01 18:08:00,68.0,65.9,29.87,ENE,68,3.0,14.0,93,0.79,,---,0.79,VWS V14.01,2013-09-01 22:08:00,
2013-09-01 18:13:00,67.0,64.6,29.87,North,0,2.0,14.0,92,0.89,,---,0.89,VWS V14.01,2013-09-01 22:13:00,
2013-09-01 18:18:00,68.0,65.9,29.87,SSW,202,2.0,14.0,93,0.92,,---,0.92,VWS V14.01,2013-09-01 22:18:00,
2013-09-01 18:23:00,68.0,65.9,29.85,SSW,202,1.0,1.0,93,0.53,,---,0.93,VWS V14.01,2013-09-01 22:23:00,
2013-09-01 18:29:00,67.0,64.9,29.85,SE,135,1.0,2.0,93,0.53,,---,0.93,VWS V14.01,2013-09-01 22:29:00,
2013-09-01 18:34:00,68.0,66.2,29.85,ESE,112,1.0,2.0,94,0.53,,---,0.93,VWS V14.01,2013-09-01 22:34:00,
2013-09-01 18:39:00,68.0,66.2,29.85,ESE,112,3.0,6.0,94,0.53,,---,0.93,VWS V14.01,2013-09-01 22:39:00,
2013-09-01 18:44:00,68.0,66.5,29.84,SE,135,3.0,5.0,95,0.37,,---,0.94,VWS V14.01,2013-09-01 22:44:00,
2013-09-01 18:49:00,68.0,66.5,29.84,West,270,2.0,5.0,95,0.37,,---,0.94,VWS V14.01,2013-09-01 22:49:00,
2013-09-01 18:54:00,68.0,66.5,29.85,West,270,3.0,5.0,95,0.37,,---,0.94,VWS V14.01,2013-09-01 22:54:00,
2013-09-01 18:59:00,67.0,65.5,29.86,SW,225,5.0,5.0,95,0.38,,---,0.95,VWS V14.01,2013-09-01 22:59:00,
2013-09-01 19:04:00,67.0,65.5,29.84,East,90,3.0,3.0,95,0.36,,---,0.96,VWS V14.01,2013-09-01 23:04:00,
2013-09-01 19:09:00,68.0,66.8,29.85,West,270,1.0,3.0,96,0.38,,---,0.98,VWS V14.01,2013-09-01 23:09:00,
2013-09-01 19:14:00,68.0,66.8,29.85,WNW,292,1.0,3.0,96,0.38,,---,0.98,VWS V14.01,2013-09-01 23:14:00,
2013-09-01 19:19:00,68.0,66.8,29.85,SE,135,1.0,3.0,96,0.38,,---,0.98,VWS V14.01,2013-09-01 23:19:00,
2013-09-01 19:24:00,68.0,66.8,29.85,NNE,22,1.0,1.0,96,0.06,,---,0.98,VWS V14.01,2013-09-01 23:24:00,
2013-09-01 19:29:00,68.0,66.8,29.85,NE,45,1.0,2.0,96,0.06,,---,0.98,VWS V14.01,2013-09-01 23:29:00,
2013-09-01 19:35:00,68.0,66.8,29.85,NNE,22,1.0,2.0,96,0.06,,---,0.98,VWS V14.01,2013-09-01 23:35:00,
2013-09-01 19:40:00,68.0,66.8,29.85,East,90,1.0,2.0,96,0.06,,---,0.98,VWS V14.01,2013-09-01 23:40:00,
2013-09-01 19:45:00,67.0,65.8,29.84,SSE,158,1.0,2.0,96,0.06,,---,0.99,VWS V14.01,2013-09-01 23:45:00,
2013-09-01 19:50:00,68.0,66.8,29.84,ESE,112,1.0,2.0,96,0.06,,---,0.99,VWS V14.01,2013-09-01 23:50:00,
2013-09-01 19:55:00,68.0,66.8,29.84,East,90,2.0,3.0,96,0.06,,---,0.99,VWS V14.01,2013-09-01 23:55:00,
2013-09-01 20:00:00,67.0,65.8,29.84,East,90,1.0,4.0,96,0.06,,---,0.99,VWS V14.01,2013-09-02 00:00:00,
2013-09-01 20:05:00,67.0,65.8,29.84,SE,135,3.0,5.0,96,0.04,,---,0.99,VWS V14.01,2013-09-02 00:05:00,
2013-09-01 20:10:00,67.0,65.8,29.84,ESE,112,5.0,6.0,96,0.04,,---,0.99,VWS V14.01,2013-09-02 00:10:00,
2013-09-01 20:15:00,68.0,66.8,29.85,SSE,158,2.0,6.0,96,0.04,,---,0.99,VWS V14.01,2013-09-02 00:15:00,
2013-09-01 20:20:00,67.0,65.8,29.85,SSE,158,2.0,6.0,96,0.04,,---,0.99,VWS V14.01,2013-09-02 00:20:00,
2013-09-01 20:25:00,67.0,65.8,29.85,SSE,158,3.0,6.0,96,0.01,,---,0.99,VWS V14.01,2013-09-02 00:25:00,
2013-09-01 20:30:00,67.0,65.8,29.86,SE,135,3.0,6.0,96,0.01,,---,0.99,VWS V14.01,2013-09-02 00:30:00,
2013-09-01 20:35:00,67.0,65.8,29.86,SSE,158,1.0,6.0,96,0.01,,---,0.99,VWS V14.01,2013-09-02 00:35:00,
2013-09-01 20:40:00,67.0,65.8,29.85,ESE,112,2.0,6.0,96,0.01,,---,0.99,VWS V14.01,2013-09-02 00:40:00,
2013-09-01 20:46:00,67.0,65.8,29.85,ESE,112,1.0,5.0,96,0.01,,---,0.99,VWS V14.01,2013-09-02 00:46:00,
2013-09-01 20:51:00,67.0,65.8,29.85,ESE,112,3.0,5.0,96,0.01,,---,0.99,VWS V14.01,2013-09-02 00:51:00,
2013-09-01 20:56:00,67.0,65.8,29.86,South,180,1.0,5.0,96,0.01,,---,0.99,VWS V14.01,2013-09-02 00:56:00,
2013-09-01 21:01:00,67.0,66.1,29.86,SE,135,1.0,5.0,97,0.01,,---,0.99,VWS V14.01,2013-09-02 01:01:00,
2013-09-01 21:06:00,67.0,65.8,29.86,ENE,68,1.0,2.0,96,0.00,,---,0.99,VWS V14.01,2013-09-02 01:06:00,
2013-09-01 21:11:00,67.0,66.1,29.86,ENE,68,1.0,2.0,97,0.00,,---,0.99,VWS V14.01,2013-09-02 01:11:00,
2013-09-01 21:16:00,67.0,66.1,29.86,ENE,68,1.0,4.0,97,0.00,,---,0.99,VWS V14.01,2013-09-02 01:16:00,
2013-09-01 21:21:00,67.0,66.1,29.86,East,90,2.0,4.0,97,0.00,,---,0.99,VWS V14.01,2013-09-02 01:21:00,
2013-09-01 21:26:00,67.0,66.1,29.87,ESE,112,1.0,3.0,97,0.00,,---,0.99,VWS V14.01,2013-09-02 01:26:00,
2013-09-01 21:31:00,67.0,66.1,29.86,ENE,68,1.0,3.0,97,0.00,,---,0.99,VWS V14.01,2013-09-02 01:31:00,
2013-09-01 21:36:00,67.0,66.1,29.87,ESE,112,0.0,3.0,97,0.00,,---,0.99,VWS V14.01,2013-09-02 01:36:00,
2013-09-01 21:41:00,67.0,66.1,29.87,ESE,112,0.0,0.0,97,0.00,,---,0.99,VWS V14.01,2013-09-02 01:41:00,
2013-09-01 21:46:00,67.0,66.1,29.87,North,0,0.0,1.0,97,0.00,,---,0.99,VWS V14.01,2013-09-02 01:46:00,
2013-09-01 21:51:00,67.0,66.1,29.87,NNE,22,1.0,1.0,97,0.00,,---,0.99,VWS V14.01,2013-09-02 01:51:00,
2013-09-01 21:56:00,67.0,66.1,29.87,North,0,0.0,1.0,97,0.00,,---,0.99,VWS V14.01,2013-09-02 01:56:00,
2013-09-01 22:02:00,67.0,66.1,29.87,NNE,22,1.0,1.0,97,0.00,,---,0.99,VWS V14.01,2013-09-02 02:02:00,
2013-09-01 22:07:00,67.0,66.1,29.87,NNE,22,0.0,1.0,97,0.00,,---,0.99,VWS V14.01,2013-09-02 02:07:00,
2013-09-01 22:12:00,67.0,66.1,29.87,NNE,22,1.0,1.0,97,0.00,,---,0.99,VWS V14.01,2013-09-02 02:12:00,
2013-09-01 22:17:00,67.0,66.1,29.86,NNE,22,1.0,1.0,97,0.00,,---,0.99,VWS V14.01,2013-09-02 02:17:00,
2013-09-01 22:22:00,67.0,66.1,29.87,NNE,22,1.0,1.0,97,0.00,,---,0.99,VWS V14.01,2013-09-02 02:22:00,
2013-09-01 22:27:00,67.0,66.1,29.87,NNE,22,1.0,1.0,97,0.00,,---,0.99,VWS V14.01,2013-09-02 02:27:00,
2013-09-01 22:32:00,67.0,66.1,29.87,NNE,22,1.0,1.0,97,0.00,,---,0.99,VWS V14.01,2013-09-02 02:32:00,
2013-09-01 22:37:00,67.0,66.1,29.87,NE,45,1.0,3.0,97,0.00,,---,0.99,VWS V14.01,2013-09-02 02:37:00,
2013-09-01 22:42:00,67.0,66.1,29.87,NE,45,1.0,1.0,97,0.01,,---,1.00,VWS V14.01,2013-09-02 02:42:00,
2013-09-01 22:47:00,67.0,66.1,29.87,SE,135,1.0,2.0,97,0.01,,---,1.00,VWS V14.01,2013-09-02 02:47:00,
2013-09-01 22:52:00,67.0,66.1,29.87,ESE,112,1.0,2.0,97,0.01,,---,1.00,VWS V14.01,2013-09-02 02:52:00,
2013-09-01 22:57:00,67.0,66.1,29.86,ESE,112,1.0,2.0,97,0.01,,---,1.00,VWS V14.01,2013-09-02 02:57:00,
2013-09-01 23:02:00,67.0,66.1,29.87,ENE,68,1.0,3.0,97,0.01,,---,1.00,VWS V14.01,2013-09-02 03:02:00,
2013-09-01 23:07:00,67.0,66.1,29.86,ESE,112,2.0,3.0,97,0.01,,---,1.00,VWS V14.01,2013-09-02 03:07:00,
2013-09-01 23:12:00,67.0,66.1,29.86,ESE,112,3.0,3.0,97,0.01,,---,1.00,VWS V14.01,2013-09-02 03:12:00,
2013-09-01 23:18:00,67.0,66.1,29.86,ENE,68,2.0,4.0,97,0.01,,---,1.00,VWS V14.01,2013-09-02 03:18:00,
2013-09-01 23:23:00,67.0,66.1,29.86,East,90,2.0,4.0,97,0.01,,---,1.00,VWS V14.01,2013-09-02 03:23:00,
2013-09-01 23:28:00,67.0,66.1,29.86,SE,135,1.0,4.0,97,0.01,,---,1.00,VWS V14.01,2013-09-02 03:28:00,
2013-09-01 23:33:00,67.0,66.4,29.86,ESE,112,0.0,4.0,98,0.01,,---,1.00,VWS V14.01,2013-09-02 03:33:00,
2013-09-01 23:38:00,67.0,66.4,29.86,North,0,0.0,4.0,98,0.01,,---,1.00,VWS V14.01,2013-09-02 03:38:00,
2013-09-01 23:43:00,67.0,66.4,29.86,NE,45,1.0,1.0,98,0.00,,---,1.00,VWS V14.01,2013-09-02 03:43:00,
2013-09-01 23:48:00,67.0,66.4,29.86,ESE,112,1.0,3.0,98,0.00,,---,1.00,VWS V14.01,2013-09-02 03:48:00,
2013-09-01 23:53:00,67.0,66.4,29.85,SE,135,2.0,3.0,98,0.00,,---,1.00,VWS V14.01,2013-09-02 03:53:00,
2013-09-01 23:58:00,67.0,66.4,29.85,ESE,112,1.0,3.0,98,0.00,,---,1.00,VWS V14.01,2013-09-02 03:58:00,